Jaipur, India

7:21 PM IST on April 30, 2017 (GMT +0530)
Jaipur

Weather History for VIJP - December, 2012

Change the Weather History Date:

Friday, December 7, 2012

  Actual Average Record
Temperature  
Mean Temperature 68 °F -  
Max Temperature 83 °F - - ()
Min Temperature 53 °F - - ()
Cooling Degree Days 3    
Growing Degree Days 18 (Base 50)    
Moisture  
Dew Point 39 °F    
Average Humidity 38    
Maximum Humidity 67    
Minimum Humidity 10    
Precipitation  
Precipitation 0.00 in - - ()
Sea Level Pressure  
Sea Level Pressure 30.00 in    
Wind  
Wind Speed 1 mph ()    
Max Wind Speed 8 mph    
Max Gust Speed -    
Visibility 1.5 miles    
Events      
T = Trace of Precipitation, MM = Missing Value Source: Averaged Metar Reports

Daily Weather History Graph

Daily Weather History Graph

Search for Another Location

Airport or City:

Trip Planner

Search our weather history database for the weather conditions in past years. The results will help you decide how hot, cold, wet, or windy it might be!

Date:

Astronomy

Dec. 07, 2012 Rise Set
Actual Time 7:02 AM IST 5:33 PM IST
Civil Twilight 6:37 AM IST 5:59 PM IST
Nautical Twilight 6:08 AM IST 6:27 PM IST
Astronomical Twilight 5:40 AM IST 6:56 PM IST
Moon No Moon Rise 12:46 PM IST (12/7)
Length of Visible Light 11h 21m
Length of Day
10h 31m
Last Quarter, 43% of the Moon is Illuminated
Dec 7
Last Quarter
Dec 13
New
Dec 20
First Quarter
Dec 28
Full
Jan 5
Last Quarter

Hourly Weather History & Observations

Time (IST) Temp. Dew Point Humidity Pressure Visibility Wind Dir Wind Speed Gust Speed Precip Events Conditions
12:00 AM 60.8 °F 37.4 °F 42% 30.04 in 1.6 mi Calm Calm - N/A   Haze
2:00 AM 57.2 °F 41.0 °F 55% 30.01 in 1.6 mi Calm Calm - N/A   Haze
2:30 AM 58 °F 42 °F 44% 29.98 in 1 mi Calm Calm - -   Haze
2:30 AM 59.0 °F 42.8 °F 55% 30.01 in 1.6 mi Calm Calm - N/A   Haze
3:00 AM 59.0 °F 41.0 °F 51% 30.01 in 1.6 mi Calm Calm - N/A   Haze
4:00 AM 55.4 °F 41.0 °F 58% 29.98 in 1.6 mi Calm Calm - N/A   Haze
5:00 AM 57.2 °F 42.8 °F 59% 29.98 in 1.6 mi Calm Calm - N/A   Haze
5:30 AM 56 °F 44 °F 54% 29.99 in 1 mi Calm Calm - -   Haze
5:30 AM 55.4 °F 44.6 °F 67% 29.98 in 1.6 mi Calm Calm - N/A   Haze
6:00 AM 55.4 °F 44.6 °F 67% 30.01 in 1.6 mi Calm Calm - N/A   Haze
6:30 AM 55.4 °F 41.0 °F 58% 30.01 in 1.2 mi Calm Calm - N/A   Haze
7:00 AM 55.4 °F 39.2 °F 54% 30.01 in 1.2 mi Calm Calm - N/A   Smoke
8:00 AM 57.2 °F 42.8 °F 59% 30.04 in 1.2 mi Calm Calm - N/A   Haze
8:30 AM 61 °F 45 °F 45% 30.00 in 1 mi Calm Calm - -   Smoke
8:30 AM 68.0 °F 41.0 °F 37% 30.04 in 1.2 mi Calm Calm - N/A   Haze
9:00 AM 71.6 °F 33.8 °F 25% 30.04 in 1.2 mi Variable 2.3 mph - N/A   Smoke
10:00 AM 73.4 °F 33.8 °F 23% 30.06 in 1.6 mi Variable 3.5 mph - N/A   Smoke
11:30 AM 78 °F 37 °F 14% 29.97 in 1 mi SW 2.3 mph - -   Haze
12:00 PM 77.0 °F 33.8 °F 21% 30.04 in 1.9 mi Variable 8.1 mph - N/A   Haze
12:30 PM 80.6 °F 35.6 °F 20% 30.01 in 1.9 mi Variable 6.9 mph - N/A   Haze
1:00 PM 80.6 °F 33.8 °F 18% 29.98 in 1.9 mi Variable 5.8 mph - N/A   Haze
2:00 PM 80.6 °F 32.0 °F 17% 29.98 in 2.5 mi NNW 6.9 mph - N/A   Haze
2:30 PM 83 °F 36 °F 10% 29.88 in 1 mi NW 4.6 mph - -   Haze
3:00 PM 80.6 °F 32.0 °F 17% 29.95 in 2.5 mi NW 5.8 mph - N/A   Haze
4:00 PM 78.8 °F 32.0 °F 18% 29.95 in 2.5 mi NW 3.5 mph - N/A   Haze
5:00 PM 77.0 °F 32.0 °F 19% 29.95 in 2.5 mi Calm Calm - N/A   Haze
7:00 PM 71.6 °F 37.4 °F 29% 29.98 in 1.6 mi Calm Calm - N/A   Haze
8:00 PM 66.2 °F 39.2 °F 37% 30.01 in 1.6 mi Calm Calm - N/A   Haze
8:30 PM 67 °F 42 °F 28% 29.95 in 1 mi Calm Calm - -   Haze
9:00 PM 66.2 °F 39.2 °F 37% 30.01 in 1.6 mi Calm Calm - N/A   Haze
10:00 PM 64.4 °F 37.4 °F 37% 30.01 in 1.2 mi Calm Calm - N/A   Smoke
11:00 PM 64.4 °F 37.4 °F 37% 30.01 in 1.2 mi Calm Calm - N/A   Smoke
11:30 PM 62 °F 43 °F 39% 29.97 in 1 mi Calm Calm - -   Smoke